STARLINK-32886, 62807

Orbit data source: Space-Track

STARLINK-32886, 62807 is a payload satellite owned by SpaceX/Seattle (US) in LEO that was launched on Fri, 24 Jan 2025 UTC via an FALCON 9 launch vehicle from the Air Force Western Test Range (AFWTR). Payload-class satellites include a variety of spacecraft equipped with specific instruments for various scientific and technological missions. These include communications satellites like Starlink; space stations such as the ISS; scientific satellites like the Hubble; Earth observation satellites from companies like Planet Labs, Umbra, and HawkEye 360; GPS; miniature CubeSats for education and research; and military/defense satellites.

Loading next visibility...
Identifier
62807, 2025-018B
Orbit
LEO
Country
Flag of USUS
Related business
Manufacturer
SpaceX/Seattle
Mission
Operational Commercial Communications
Bus & Motor
STARLINK V2M, Unknown motor
Mass
730 kg wet, ~700 kg dry
Launch date (UTC)
2025-01-24 (1 year ago)
Launch vehicle
FALCON 9
Launch site
Air Force Western Test Range (AFWTR)
Object type
Payload
Rocket body
Debris
Shape & HBR
Box + 2 Pan, 17.7 m
Radar Cross Section
33.884 m², Large (>1 m²)

Expand to show TLE details & history
Last TLE update: 14 hours ago

TLE from 14 hours ago
0 STARLINK-32886
1 62807U 25018B   26167.83109947  .00010386  00000-0  31807-3 0  9992
2 62807  53.1585 208.6542 0001159  82.2972 277.8162 15.34402293 78365
Epoch: 2026-06-16T19:56Z
TLE epoch observation values (Epoch: 2026-06-16T19:56:46.994Z)
Latitude
-0.00002°
Longitude
4.36088°
Altitude
463.49 km
Speed
7.636 km/s
True Right ascension
13h 54m 37s
True Declination
0° 00' 00"
Sunlit
Object was in full shadow at epoch
Visualization orbit readout
Latitude
Unknown
Longitude
Unknown
Altitude
Unknown
Speed
Unknown
Apparent Right ascension
Unknown
Apparent Declination
Unknown
Sunlit
N/A
Visualization observer readout
Local Sidereal Time
20:10:09
Azimuth
Unknown
Elevation
Unknown
Doppler factor
Unknown
Orbital elements
Apogee altitude
463.746 km
Perigee altitude
462.161 km
Semi-major axis
6,841.091 km
Eccentricity
0.00012
Inclination
53.1585°
RAAN
208.6542°
Arg. of periapsis
82.2972°
True anomaly
277.80304°
Mean anomaly
277.8162°
Eccentric anomaly
277.80962°
Mean motion
3.83579 °/min
Orbital period
93.85 mins
BSTAR
0.00031807
Loading maneuver chart data...
Computing Atmospheric mass density...
Loading historical data...
Loading historical data...
Loading historical data...
Loading historical data...
Loading historical data...
Loading historical data...
Loading historical data...

Documentation

Showing up to 5 results
|